Weather History for KHFJ - March, 2014

Change the Weather History Date:

Sunday, March 2, 2014

  Actual Average (KJLN) Record (KJLN)
Temperature  
Mean Temperature 14 °F 44 °F  
Max Temperature 26 °F 55 °F 80 °F (1983)
Min Temperature 3 °F 34 °F 3 °F (1980)
Degree Days  
Heating Degree Days 50 21  
Month to date heating degree days 42  
Since 1 July heating degree days 3296  
Cooling Degree Days 0 0  
Month to date cooling degree days 0  
Year to date cooling degree days 1  
Moisture  
Dew Point 10 °F    
Average Humidity 87    
Maximum Humidity 100    
Minimum Humidity 78    
Precipitation  
Precipitation 0.11 in 0.10 in 1.02 in (1988)
Month to date precipitation 0.20  
Year to date precipitation 4.55  
Sea Level Pressure  
Sea Level Pressure 30.24 in    
Wind  
Wind Speed 14 mph (North)    
Max Wind Speed 20 mph    
Max Gust Speed 29 mph    
Visibility 4 miles    
Events Snow , Thunderstorm    
T = Trace of Precipitation, MM = Missing Value Source: NWS Daily Summary

Daily Weather History Graph

Daily Weather History Graph

Search for Another Location

Airport or City:

Trip Planner

Search our weather history database for the weather conditions in past years. The results will help you decide how hot, cold, wet, or windy it might be!

Date:

Astronomy

Mar. 02, 2014 Rise Set
Actual Time 6:45 AM CST 6:11 PM CST
Civil Twilight 6:19 AM CST 6:37 PM CST
Nautical Twilight 5:49 AM CST 7:07 PM CST
Astronomical Twilight 5:19 AM CST 7:37 PM CST
Moon 7:20 AM CST (3/2) 8:04 PM CST (3/2)
Length of Visible Light 12h 17m
Length of Day
11h 25m
Waxing Crescent, 3% of the Moon is Illuminated
Mar 2
Waxing Crescent
Mar 8
First Quarter
Mar 16
Full
Mar 23
Last Quarter
Mar 30
New

Hourly Weather History & Observations

Time (CST) Temp. Windchill Dew Point Humidity Pressure Visibility Wind Dir Wind Speed Gust Speed Precip Events Conditions
12:15 AM 26.6 °F 15.2 °F 24.8 °F 93% 30.11 in 3.0 mi NNE 13.8 mph 23.0 mph N/A   Overcast
12:35 AM 26.6 °F 15.7 °F 24.8 °F 93% 30.11 in 2.5 mi NNE 12.7 mph - N/A   Overcast
12:55 AM 24.8 °F 14.0 °F 24.8 °F 100% 30.13 in 2.5 mi North 11.5 mph - N/A   Overcast
1:15 AM 24.8 °F 13.4 °F 23.0 °F 93% 30.13 in 2.0 mi North 12.7 mph 21.9 mph N/A   Overcast
1:35 AM 24.8 °F 12.4 °F 23.0 °F 93% 30.13 in 2.0 mi North 15.0 mph 23.0 mph N/A   Overcast
1:55 AM 23.0 °F 9.6 °F 23.0 °F 100% 30.12 in 3.0 mi NNE 16.1 mph 19.6 mph N/A   Overcast
2:15 AM 23.0 °F 9.6 °F 23.0 °F 100% 30.12 in 4.0 mi North 16.1 mph 19.6 mph N/A   Overcast
2:35 AM 23.0 °F 11.1 °F 23.0 °F 100% 30.12 in 4.0 mi North 12.7 mph 18.4 mph N/A Thunderstorm Overcast
2:55 AM 23.0 °F 9.2 °F 21.2 °F 93% 30.15 in 2.5 mi North 17.3 mph 24.2 mph 0.03 in Snow , Thunderstorm Light Thunderstorms and Snow
3:15 AM 23.0 °F 10.6 °F 21.2 °F 93% 30.14 in 10.0 mi North 13.8 mph 19.6 mph 0.01 in Thunderstorm Overcast
3:35 AM 23.0 °F 13.1 °F 21.2 °F 93% 30.14 in 10.0 mi North 9.2 mph 12.7 mph 0.01 in Thunderstorm Overcast
3:55 AM 21.2 °F 10.1 °F 19.4 °F 93% 30.16 in 7.0 mi North 10.4 mph - 0.01 in   Overcast
4:15 AM 21.2 °F 8.9 °F 19.4 °F 93% 30.16 in 4.0 mi North 12.7 mph - N/A   Overcast
4:35 AM 21.2 °F 8.3 °F 19.4 °F 93% 30.18 in 5.0 mi North 13.8 mph 18.4 mph N/A   Overcast
4:55 AM 19.4 °F 6.0 °F 17.6 °F 93% 30.17 in 5.0 mi North 13.8 mph 24.2 mph N/A   Overcast
5:15 AM 17.6 °F 3.7 °F 14.0 °F 86% 30.19 in 7.0 mi North 13.8 mph - N/A   Overcast
5:35 AM 15.8 °F 0.3 °F 12.2 °F 86% 30.20 in 10.0 mi North 16.1 mph 20.7 mph N/A   Overcast
5:55 AM 15.8 °F 2.7 °F 12.2 °F 86% 30.21 in 10.0 mi North 11.5 mph - N/A   Overcast
6:15 AM 15.8 °F 2.7 °F 12.2 °F 86% 30.23 in 10.0 mi North 11.5 mph - N/A Snow Light Snow
6:35 AM 14.0 °F -0.8 °F 12.2 °F 93% 30.22 in 5.0 mi North 13.8 mph 19.6 mph N/A Snow Light Snow
6:55 AM 14.0 °F 1.2 °F 12.2 °F 93% 30.25 in 5.0 mi North 10.4 mph - N/A Snow Light Snow
7:15 AM 14.0 °F -0.8 °F 12.2 °F 93% 30.24 in 4.0 mi North 13.8 mph 21.9 mph N/A Snow Light Snow
7:35 AM 14.0 °F -2.0 °F 10.4 °F 86% 30.25 in 1.8 mi North 16.1 mph 23.0 mph N/A Snow Light Snow
7:55 AM 12.2 °F -3.7 °F 10.4 °F 92% 30.27 in 1.8 mi North 15.0 mph 21.9 mph N/A Snow Light Snow
8:15 AM 12.2 °F -3.7 °F 10.4 °F 92% 30.27 in 1.8 mi North 15.0 mph 20.7 mph N/A Snow Light Snow
8:35 AM 12.2 °F -0.2 °F 10.4 °F 92% 30.27 in 1.5 mi North 9.2 mph 18.4 mph N/A Snow Light Snow
8:55 AM 12.2 °F -3.1 °F 10.4 °F 92% 30.27 in 1.2 mi North 13.8 mph 19.6 mph N/A Snow Light Snow
9:15 AM 12.2 °F -3.1 °F 8.6 °F 85% 30.27 in 1.5 mi North 13.8 mph - N/A Snow Light Snow
9:35 AM 12.2 °F -3.7 °F 8.6 °F 85% 30.29 in 1.8 mi North 15.0 mph 23.0 mph N/A Snow Light Snow
9:55 AM 12.2 °F -3.1 °F 8.6 °F 85% 30.29 in 2.5 mi North 13.8 mph 20.7 mph N/A Snow Light Snow
10:15 AM 10.4 °F -5.4 °F 8.6 °F 92% 30.30 in 2.5 mi North 13.8 mph 18.4 mph N/A Snow , Thunderstorm Light Thunderstorms and Snow
10:35 AM 12.2 °F -1.8 °F 8.6 °F 85% 30.25 in 4.0 mi NNE 11.5 mph 21.9 mph N/A Snow Light Snow
10:55 AM 12.2 °F -3.1 °F 8.6 °F 85% 30.28 in 5.0 mi North 13.8 mph - N/A Snow Light Snow
11:15 AM 12.2 °F -3.7 °F 8.6 °F 85% 30.29 in 3.0 mi North 15.0 mph - N/A Snow Light Snow
11:35 AM 12.2 °F -2.5 °F 8.6 °F 85% 30.32 in 4.0 mi North 12.7 mph 16.1 mph N/A Snow , Thunderstorm Light Thunderstorms and Snow
11:55 AM 12.2 °F -4.3 °F 8.6 °F 85% 30.26 in 5.0 mi NNE 16.1 mph 23.0 mph N/A Snow Light Snow
12:15 PM 12.2 °F -4.3 °F 8.6 °F 85% 30.25 in 5.0 mi NNE 16.1 mph 21.9 mph N/A Snow Light Snow
12:35 PM 12.2 °F -5.3 °F 8.6 °F 85% 30.24 in 3.0 mi North 18.4 mph 24.2 mph N/A Snow , Thunderstorm Light Thunderstorms and Snow
12:55 PM 12.2 °F -4.8 °F 8.6 °F 85% 30.25 in 4.0 mi North 17.3 mph 20.7 mph N/A Snow Light Snow
1:15 PM 12.2 °F -2.5 °F 8.6 °F 85% 30.27 in 4.0 mi North 12.7 mph - N/A Snow Light Snow
1:35 PM 12.2 °F -5.8 °F 8.6 °F 85% 30.22 in 4.0 mi North 19.6 mph 25.3 mph N/A Snow Light Snow
1:55 PM 12.2 °F -5.3 °F 8.6 °F 85% 30.23 in 3.0 mi North 18.4 mph 28.8 mph N/A Snow Light Snow
2:15 PM 12.2 °F -5.3 °F 8.6 °F 85% 30.22 in 4.0 mi North 18.4 mph 23.0 mph N/A Snow Light Snow
2:35 PM 12.2 °F -4.8 °F 8.6 °F 85% 30.23 in 4.0 mi NNE 17.3 mph 27.6 mph N/A Snow Light Snow
2:55 PM 12.2 °F -3.7 °F 6.8 °F 79% 30.26 in 3.0 mi North 15.0 mph - N/A Snow Light Snow
3:15 PM 10.4 °F -6.6 °F 6.8 °F 85% 30.25 in 4.0 mi North 16.1 mph 23.0 mph N/A Snow Light Snow
3:35 PM 10.4 °F -7.7 °F 6.8 °F 85% 30.24 in 3.0 mi North 18.4 mph - N/A Snow Light Snow
3:55 PM 10.4 °F -6.6 °F 6.8 °F 85% 30.23 in 3.0 mi North 16.1 mph 24.2 mph N/A Snow Light Snow
4:15 PM 10.4 °F -6.6 °F 6.8 °F 85% 30.23 in 2.5 mi North 16.1 mph 23.0 mph N/A Snow Light Snow
4:35 PM 10.4 °F -6.0 °F 6.8 °F 85% 30.27 in 2.5 mi North 15.0 mph 20.7 mph N/A Snow Light Snow
4:55 PM 10.4 °F -6.6 °F 5.0 °F 79% 30.27 in 5.0 mi North 16.1 mph 23.0 mph N/A Snow Light Snow
5:15 PM 10.4 °F -6.0 °F 5.0 °F 79% 30.24 in 2.0 mi North 15.0 mph 20.7 mph 0.01 in Snow Light Snow
5:35 PM 10.4 °F -5.4 °F 5.0 °F 79% 30.23 in 1.0 mi North 13.8 mph 23.0 mph 0.02 in Snow Light Snow
5:55 PM 10.4 °F -7.7 °F 5.0 °F 79% 30.22 in 3.0 mi North 18.4 mph 24.2 mph 0.03 in Snow Light Snow
6:15 PM 8.6 °F -8.9 °F 5.0 °F 85% 30.23 in 4.0 mi North 16.1 mph 26.5 mph 0.01 in Snow Light Snow
6:35 PM 8.6 °F -10.5 °F 5.0 °F 85% 30.24 in 3.0 mi North 19.6 mph - 0.03 in Snow Light Snow
6:55 PM 8.6 °F -7.0 °F 5.0 °F 85% 30.26 in 2.0 mi North 12.7 mph - 0.04 in Snow Light Snow
7:15 PM 8.6 °F -8.9 °F 5.0 °F 85% 30.23 in 5.0 mi North 16.1 mph 21.9 mph N/A Snow Light Snow
7:35 PM 8.6 °F -10.0 °F 3.2 °F 79% 30.26 in 7.0 mi North 18.4 mph 27.6 mph N/A Snow Light Snow
7:55 PM 8.6 °F -8.3 °F 3.2 °F 79% 30.29 in 10.0 mi North 15.0 mph 23.0 mph N/A Snow Light Snow
8:15 PM 8.6 °F -8.3 °F 3.2 °F 79% 30.28 in 10.0 mi North 15.0 mph 21.9 mph N/A Snow Light Snow
8:35 PM 8.6 °F -6.3 °F 3.2 °F 79% 30.28 in 7.0 mi North 11.5 mph 19.6 mph N/A Snow Light Snow
8:55 PM 6.8 °F -10.7 °F 1.4 °F 79% 30.30 in 5.0 mi North 15.0 mph 20.7 mph N/A Snow Light Snow
9:15 PM 5.0 °F -13.6 °F 1.4 °F 85% 30.29 in 1.2 mi North 16.1 mph 20.7 mph N/A Snow Light Snow
9:35 PM 5.0 °F -10.8 °F 1.4 °F 85% 30.30 in 5.0 mi North 11.5 mph 18.4 mph N/A Snow Light Snow
9:55 PM 5.0 °F -11.6 °F 1.4 °F 85% 30.31 in 7.0 mi North 12.7 mph 24.2 mph N/A Snow Light Snow
10:15 PM 5.0 °F -10.8 °F 1.4 °F 85% 30.31 in 10.0 mi North 11.5 mph 17.3 mph N/A   Overcast
10:35 PM 5.0 °F -11.6 °F -0.4 °F 78% 30.32 in 10.0 mi North 12.7 mph 18.4 mph N/A   Overcast
10:55 PM 5.0 °F -9.1 °F -0.4 °F 78% 30.33 in 7.0 mi North 9.2 mph - N/A   Overcast
11:15 PM 5.0 °F -9.1 °F -0.4 °F 78% 30.35 in 2.0 mi NNW 9.2 mph - N/A Snow Light Snow
11:35 PM 3.2 °F -13.9 °F -0.4 °F 85% 30.34 in 1.2 mi NNW 12.7 mph - N/A Snow Light Snow
11:55 PM 3.2 °F -13.9 °F -0.4 °F 85% 30.36 in 2.0 mi NNW 12.7 mph - N/A Snow Light Snow